Location: Newark
(45.6439°N, 0.5436°E)
Time: 15:09:45
(UTC+00:00)

N. Korean satellite - Pass Details

Date: 29 November 2019
Orbit: 456 x 506 km, 97.2° (Epoch: 06 December)

Event Time Altitude Azimuth Distance (km) Brightness Sun altitude
Rises 06:33:20 0° 2° (N) 2,595 10.0 -7.3°
Reaches altitude 10° 06:35:36 10° 352° (N) 1,699 9.0 -7.0°
Maximum altitude 06:38:49 30° 290° (WNW) 897 7.4 -6.5°
Drops below altitude 10° 06:41:59 10° 228° (SW) 1,661 9.0 -6.0°
Sets 06:44:10 0° 217° (SW) 2,525 10.1 -5.6°
